Tracking 25963 objects as of 13-Aug-2022
HD Live streaming from Space Station
objects crossing your sky now

FLOCK 3K 3

Track FLOCK 3K 3 now!
10-day predictions
FLOCK 3K 3 is classified as:


NORAD ID: 43892
Int'l Code: 2018-111S
Perigee: 427.9 km
Apogee: 445.1 km
Inclination: 97.2 °
Period: 93.2 minutes
Semi major axis: 6807 km
RCS: Unknown
Launch date: December 27, 2018
Source: United States (US)
Launch site: VOSTOCHNY COSMODROME (VOSTO)
aabbcc
Your satellite tracking list
Your tracking list is empty




NASA's NSSDC Master Catalog

Two Line Element Set (TLE):
1 43892U 18111S   22224.62680503  .00035716  00000-0  73763-3 0  9991
2 43892  97.1890 115.3493 0012643 209.1815 150.8730 15.45676883202292
Source of the keplerian elements: AFSPC